Regional Weather Roundup
Issued by NWS San Diego, CA

Home | Current Version | Previous Version | Text Only | Print | Product List | Glossary On
Versions: 1 2 3 4 5 6 7 8 9 10 11 12 13 14 15 16 17 18 19 20 21 22 23 24 25 26 27 28 29 30 31 32 33 34 35 36 37 38 39 40 41 42 43 44 45 46 47 48 49 50
000
ASUS46 KSGX 291310
RWRSGX

SAN DIEGO HOURLY WEATHER ROUNDUP
NATIONAL WEATHER SERVICE SAN DIEGO CA
500 AM PST MON DEC 29 2014

NOTE: "FAIR" INDICATES FEW OR NO CLOUDS BELOW 12,000 FEET WITH NO
SIGNIFICANT WEATHER AND/OR OBSTRUCTIONS TO VISIBILITY.

CAZ042-043-060-061-PZZ750-775-291400-

GREATER SAN DIEGO AREA

CITY           SKY/WX    TMP DP  RH WIND       PRES   REMARKS
LINDBERGH FLD  PTCLDY    49  33  54 SE5       30.14F
NATIONAL CITY    N/A     43  36  77 CALM      30.14F
CHULA VISTA      N/A     41  37  85 CALM      30.07S
IMPERIAL BEACH CLEAR     45  35  68 E9        30.13S
BROWN FIELD    CLEAR     42  32  67 SE8       30.12F
MIRAMAR MCAS   PTCLDY    44  34  67 E8        30.12S
MONTGOMERY FLD CLEAR     42  34  73 CALM      30.13S

$$

NORTH SAN DIEGO COUNTY

CITY           SKY/WX    TMP DP  RH WIND       PRES   REMARKS
CAMP PENDLETON CLEAR     36  30  79 CALM      30.14S
OCEANSIDE AP   CLOUDY    39  34  82 NE5       30.13S
OCEANSIDE HBR    N/A     42  37  80 E6        30.15F
VISTA            N/A     39  35  87 CALM      30.12F
CARLSBAD       CLEAR     45  36  70 E5        30.11F
DEL MAR          N/A     46  40  78 CALM      30.15F
LA JOLLA SCRIP   N/A     47  37  69 CALM      30.10F
FALLBROOK        N/A     42  39  89 CALM      30.15S
ESCONDIDO        N/A     38  33  82 CALM      30.16F
SAN MARCOS       N/A     45  38  77 CALM      30.12F
POWAY            N/A     35  32  89 CALM      30.17F

$$

EAST SAN DIEGO COUNTY

CITY           SKY/WX    TMP DP  RH WIND       PRES   REMARKS
RAMONA         CLEAR     27  25  92 CALM      30.12S FOG
SANTEE LAKES     N/A     36  33  90 N3        30.17S
LA MESA          N/A     42  32  68 E3        30.09F
JAMUL            N/A     38  32  80 CALM      30.14F
DESCANSO N       N/A     31  20  61 E7        30.09F WCI  25
MT. LAGUNA OBS   N/A     40   5  22 N3        29.66S
CAMPO            N/A     25  20  81 NE6       30.07F WCI  18

$$

ORANGE COUNTY AND THE LOS ANGELES BASIN

CITY           SKY/WX    TMP DP  RH WIND       PRES   REMARKS
JOHN WAYNE AP  CLEAR     46  35  65 NE3       30.12F
LAGUNA BEACH     N/A     39  35  84 N6        30.08F WCI  35
LAKE FOREST FR   N/A     43  32  63 NE2       30.04S
SANTA ANA        N/A     39  35  84 CALM      30.08S
HUNTINGTON BCH   N/A     38  36  91 CALM      30.14F
LOS ALAMITOS   FAIR      41  36  84 N2        30.13S
FULLERTON      CLEAR     42  35  76 E5        30.12F
LONG BEACH     CLEAR     43  36  76 CALM      30.13S
L.A. AP        CLEAR     44  34  67 CALM      30.13F
L.A. DOWNTOWN  CLEAR     41  33  73 CALM      30.12F

$$

THE INLAND EMPIRE

CITY           SKY/WX    TMP DP  RH WIND       PRES   REMARKS
CORONA         CLEAR     29  29 100 CALM      30.14F
CHINO          CLEAR     33  29  85 CALM      30.14F
ONTARIO        CLEAR     38  29  70 CALM      30.12F
RIVERSIDE AP   CLEAR     38  29  70 E5        30.13S WCI  34
RIV CYN CREST    N/A     39  38  93 CALM        N/A
MORENO VALLEY    N/A     38  36  92 CALM      29.29F
MARCH ARB      CLEAR     29  27  92 CALM      30.11F
HORSETHIEF CYN   N/A     36  25  65 S1        30.14F
PERRIS           N/A     35  31  87 CALM      30.13S
MENIFEE          N/A     31  30  96 CALM      30.20S
HEMET EAST       N/A     39  24  55 CALM      30.14F
FRENCH VALLEY  FAIR      32  30  93 CALM      30.12F
TEMECULA         N/A     34  33  95 CALM      30.11F

$$

SAN BERNARDINO AND RIVERSIDE COUNTY MOUNTAINS

CITY           SKY/WX    TMP DP  RH WIND       PRES   REMARKS
BIG BEAR AP    CLEAR     32  -2  23 W5        30.11F WCI  27
PINE COVE        N/A     40  -5  14 NW3       30.11R

$$

SOUTHERN DESERT INCLUDING THE COACHELLA VALLEY

CITY           SKY/WX    TMP DP  RH WIND       PRES   REMARKS
PALM SPRINGS   CLEAR     37  24  59 NW3       30.12S
THOUSAND PALMS   N/A     34  20  57 S2        30.08
PALM DESERT      N/A     33  27  79 CALM      29.41F
THERMAL        CLEAR     26  16  65 N3        30.11S
BLYTHE         CLEAR     34  19  54 W3        30.12S
IMPERIAL AP    CLEAR     32  14  47 SW3       30.11F
EL CENTRO NAS  CLEAR     33  13  43 W7        30.12S WCI  27
YUMA AZ        MOCLDY    37  16  42 NE9       30.11S WCI  30

$$

UPPER DESERT

CITY           SKY/WX    TMP DP  RH WIND       PRES   REMARKS
VICTORVILLE AP   N/A     32  21  64 S3        30.07S
HESPERIA         N/A     33  20  57 CALM      30.29F
PALMDALE       CLEAR     43  24  47 NW13      30.08F
LANCASTER      CLEAR     41  25  53 NW8       30.09S
EDWARDS AFB    CLEAR     31  21  66 N5        30.07R WCI  26
DAGGETT        CLEAR     26  14  60 CALM      30.11R
29 PALMS N     CLEAR     28  10  46 CALM      30.16S
NEEDLES        CLEAR     32  14  47 W7        30.13S WCI  26

$$

REGIONAL REPORTS

CITY           SKY/WX    TMP DP  RH WIND       PRES   REMARKS
SANTA BARBARA  CLEAR     39  35  86 CALM      30.12S
SANDBERG       CLEAR     40  24  53 NW32G39   30.11F WCI  28
MT. WILSON       N/A     41 -13   9 MISG        N/A
LAS VEGAS NV   CLEAR     31  13  47 S9        30.06F WCI  23
PHOENIX AZ     CLEAR     38  25  59 E5        30.12R WCI  34
TIJUANA        CLEAR     45  30  57 SE3       30.15F
ENSENADA NW      N/A     48  32  53 NE7       30.11S

$$

OFFSHORE ISLANDS

CITY           SKY/WX    TMP DP  RH WIND       PRES   REMARKS
CATALINA ARPT  CLEAR     47  43  86 CALM      30.11F
SAN NICOLAS IS CLEAR    N/A N/A N/A NW10      30.11F

$$

MARINE AND OFFSHORE BUOY REPORTS

STATION/POSITION SKY/WX   TEMP    WIND        PRES    SWELL
                          AIR SEA DIR/SP/G            HT/PER/DIR
                          (F)     (DEG/KT/KT) (MB)    (FT/S/D)
TANNER BANKS               60 63  330/ 14/ 16 1019.8F   5/320/15
S CLEMENTE BASIN           59 64  310/  4/  6 1019.6F   2/270/15
SAN NICOLAS IS.               61                N/A     5/300/13
SO. S. ROSA ISLA           58 59  320/ 16/ 19 1019.8F   3/15
W. S. BARBARA CH           58 61  320/ 16/ 19 1019.6F   5/310/13
S. MONICA BASIN            57 62   60/  2/  6 1020.0F   2/260/14
S PEDRO CHANNEL               62                N/A     2/250/13
DANA POINT                    63                N/A     2/290/14
CMP PENDLETON NS              62                N/A     2/210/13
OCEANSIDE OFFSHR              63                N/A     2/210/13
TORREY PINES OTR              64                N/A     2/230/14
LA JOLLA 1                 49 61   90/ 14/ 16 1020.0F
MISSION BAY BUOY              63                N/A     2/230/13
SAN DIEGO BAY                 63              1020.8F
POINT LOMA SOUTH              64                N/A     2/250/14

$$




USA.gov is the U.S. government's official web portal to all federal, state and local government web resources and services.